GOPLM EGKA-EGKA

Flight info

Callsign GOPLM
Flight time N/A
Altitude 3000
Route VFR
Aircraft DA42/L-SFG/C

Departure

Time 2026-05-06 17:28
Airport Brighton City Airport (EGKA)

Arrival

Time N/A
Airport Brighton City Airport (EGKA)
Time Latitude Longitude Altitude Speed Heading
2026-05-06 17:24 50.83361 -0.29175 10 ft 0 kts 164°
2026-05-06 17:24 50.83359 -0.29175 10 ft 1 kts 187°
2026-05-06 17:25 50.83358 -0.29175 10 ft 0 kts 188°
2026-05-06 17:25 50.83376 -0.29171 10 ft 0 kts 188°
2026-05-06 17:25 50.83369 -0.29195 10 ft 5 kts 296°
2026-05-06 17:26 50.83413 -0.29207 10 ft 8 kts 21°
2026-05-06 17:26 50.83432 -0.29272 10 ft 11 kts 247°
2026-05-06 17:26 50.83392 -0.29404 10 ft 16 kts 244°
2026-05-06 17:26 50.83335 -0.29579 10 ft 20 kts 243°
2026-05-06 17:27 50.83275 -0.29765 10 ft 15 kts 241°
2026-05-06 17:27 50.83240 -0.29896 10 ft 7 kts 274°
2026-05-06 17:27 50.83270 -0.29915 11 ft 17 kts 22°
2026-05-06 17:27 50.83579 -0.29722 11 ft 73 kts 22°
2026-05-06 17:28 50.84133 -0.29371 122 ft 93 kts 21°
2026-05-06 17:28 50.84744 -0.29027 421 ft 94 kts 17°
2026-05-06 17:28 50.85346 -0.28635 667 ft 93 kts 30°
2026-05-06 17:28 50.85903 -0.28028 784 ft 107 kts 33°
2026-05-06 17:29 50.86513 -0.27562 1173 ft 98 kts 19°
2026-05-06 17:29 50.87219 -0.27215 1229 ft 116 kts 14°
2026-05-06 17:29 50.88041 -0.26865 1303 ft 130 kts 14°
2026-05-06 17:29 50.88906 -0.26507 1493 ft 130 kts 14°
2026-05-06 17:30 50.89813 -0.26133 1495 ft 138 kts 14°
2026-05-06 17:30 50.90760 -0.25741 1493 ft 141 kts 14°
2026-05-06 17:30 50.91698 -0.25360 1493 ft 141 kts 14°
2026-05-06 17:30 50.92664 -0.24961 1499 ft 143 kts 14°
2026-05-06 17:31 50.93629 -0.24565 1499 ft 143 kts 14°
2026-05-06 17:31 50.94596 -0.24180 1501 ft 143 kts 14°
2026-05-06 17:31 50.95566 -0.23795 1500 ft 144 kts 14°
2026-05-06 17:31 50.96538 -0.23416 1495 ft 143 kts 14°
2026-05-06 17:32 50.97488 -0.23030 1494 ft 142 kts 14°
2026-05-06 17:32 50.98433 -0.22643 1494 ft 140 kts 14°
2026-05-06 17:32 50.99383 -0.22250 1494 ft 140 kts 14°
2026-05-06 17:32 51.00326 -0.21860 1494 ft 139 kts 14°
2026-05-06 17:33 51.01257 -0.21467 1493 ft 138 kts 15°
2026-05-06 17:33 51.01980 -0.20500 1488 ft 144 kts 63°
2026-05-06 17:33 51.02053 -0.18898 1496 ft 149 kts 88°
2026-05-06 17:33 51.02032 -0.17241 1493 ft 150 kts 87°
2026-05-06 17:34 51.02015 -0.15585 1496 ft 151 kts 87°
2026-05-06 17:34 51.01997 -0.13905 1493 ft 152 kts 87°
2026-05-06 17:34 51.01979 -0.12223 1496 ft 153 kts 88°
2026-05-06 17:34 51.01959 -0.10540 1498 ft 152 kts 87°
2026-05-06 17:35 51.01941 -0.08856 1492 ft 151 kts 87°
2026-05-06 17:35 51.01922 -0.07201 1495 ft 151 kts 87°
2026-05-06 17:35 51.01904 -0.05532 1492 ft 150 kts 86°
2026-05-06 17:36 51.01869 -0.02225 1496 ft 150 kts 86°
2026-05-06 17:36 51.01850 -0.00565 1503 ft 151 kts 87°
2026-05-06 17:36 51.01831 0.01078 1503 ft 150 kts 86°
2026-05-06 17:36 51.01816 0.02745 1505 ft 151 kts 88°
2026-05-06 17:37 51.01795 0.04416 1511 ft 151 kts 88°
2026-05-06 17:37 51.01775 0.06089 1511 ft 152 kts 87°
2026-05-06 17:37 51.01755 0.07761 1506 ft 151 kts 88°
2026-05-06 17:37 51.01716 0.09419 1512 ft 150 kts 88°
2026-05-06 17:38 51.01675 0.11083 1508 ft 151 kts 88°
2026-05-06 17:38 51.01739 0.12723 1503 ft 148 kts 66°
2026-05-06 17:38 51.02416 0.13886 1506 ft 144 kts 36°
2026-05-06 17:38 51.03177 0.14868 1676 ft 133 kts 37°
2026-05-06 17:39 51.03876 0.15768 1859 ft 128 kts 36°
2026-05-06 17:39 51.04569 0.16663 1936 ft 130 kts 37°
2026-05-06 17:39 51.05266 0.17574 2030 ft 129 kts 37°
2026-05-06 17:39 51.05962 0.18493 2157 ft 131 kts 37°
2026-05-06 17:40 51.06657 0.19418 2301 ft 130 kts 38°
2026-05-06 17:40 51.07353 0.20356 2404 ft 135 kts 38°
2026-05-06 17:40 51.08084 0.21347 2409 ft 141 kts 38°
2026-05-06 17:40 51.08836 0.22376 2409 ft 144 kts 38°
2026-05-06 17:41 51.09592 0.23420 2411 ft 144 kts 39°
2026-05-06 17:41 51.10346 0.24473 2413 ft 145 kts 39°
2026-05-06 17:41 51.11089 0.25522 2411 ft 144 kts 39°
2026-05-06 17:41 51.11833 0.26582 2415 ft 144 kts 40°
2026-05-06 17:42 51.12581 0.27660 2412 ft 145 kts 40°
2026-05-06 17:42 51.13339 0.28711 2410 ft 144 kts 31°
2026-05-06 17:42 51.14296 0.28861 2412 ft 143 kts 342°
2026-05-06 17:42 51.15073 0.27838 2415 ft 148 kts 317°
2026-05-06 17:43 51.15808 0.26682 2415 ft 149 kts 320°
2026-05-06 17:43 51.16576 0.25578 2414 ft 149 kts 322°
2026-05-06 17:43 51.17361 0.24504 2414 ft 149 kts 322°
2026-05-06 17:43 51.18157 0.23436 2414 ft 150 kts 322°
2026-05-06 17:44 51.18957 0.22368 2416 ft 149 kts 323°
2026-05-06 17:44 51.19753 0.21307 2414 ft 149 kts 323°
2026-05-06 17:44 51.20548 0.20248 2415 ft 149 kts 323°
2026-05-06 17:44 51.21345 0.19187 2413 ft 149 kts 323°
2026-05-06 17:45 51.22134 0.18132 2408 ft 147 kts 323°
2026-05-06 17:45 51.22916 0.17089 2409 ft 146 kts 322°
2026-05-06 17:45 51.23692 0.16053 2409 ft 145 kts 323°
2026-05-06 17:45 51.24467 0.15018 2407 ft 145 kts 323°
2026-05-06 17:46 51.25239 0.13988 2411 ft 146 kts 322°
2026-05-06 17:46 51.26025 0.12940 2411 ft 148 kts 322°
2026-05-06 17:46 51.26819 0.11877 2412 ft 149 kts 322°
2026-05-06 17:46 51.27605 0.10826 2411 ft 149 kts 322°
2026-05-06 17:47 51.28398 0.09764 2410 ft 148 kts 322°
2026-05-06 17:47 51.29190 0.08704 2413 ft 149 kts 322°
2026-05-06 17:47 51.29990 0.07639 2412 ft 150 kts 322°
2026-05-06 17:47 51.30768 0.06520 2407 ft 153 kts 311°
2026-05-06 17:48 51.31007 0.04858 2399 ft 162 kts 264°
2026-05-06 17:48 51.30683 0.03138 2395 ft 159 kts 271°
2026-05-06 17:48 51.30915 0.01457 2397 ft 156 kts 283°
2026-05-06 17:48 51.30960 -0.00277 2396 ft 156 kts 275°
2026-05-06 17:49 51.30964 -0.02023 2388 ft 157 kts 274°
2026-05-06 17:49 51.30954 -0.03753 2396 ft 156 kts 273°
2026-05-06 17:49 51.30936 -0.05470 2393 ft 156 kts 273°
2026-05-06 17:49 51.30917 -0.07207 2393 ft 156 kts 273°
2026-05-06 17:50 51.30897 -0.08934 2392 ft 155 kts 273°
2026-05-06 17:50 51.30880 -0.10655 2397 ft 156 kts 273°
2026-05-06 17:50 51.30862 -0.12382 2396 ft 155 kts 273°
2026-05-06 17:50 51.30842 -0.14102 2396 ft 155 kts 272°
2026-05-06 17:51 51.30823 -0.15827 2393 ft 155 kts 272°
2026-05-06 17:51 51.30805 -0.17556 2396 ft 156 kts 272°
2026-05-06 17:51 51.30785 -0.19298 2395 ft 157 kts 273°
2026-05-06 17:51 51.30766 -0.21042 2395 ft 156 kts 273°
2026-05-06 17:52 51.30747 -0.22780 2393 ft 157 kts 273°
2026-05-06 17:52 51.30729 -0.24520 2396 ft 157 kts 272°
2026-05-06 17:52 51.30716 -0.25676 2394 ft 157 kts 272°
2026-05-06 17:52 51.30696 -0.27423 2396 ft 157 kts 272°
2026-05-06 17:53 51.30677 -0.29170 2396 ft 157 kts 272°
2026-05-06 17:53 51.30658 -0.30911 2396 ft 157 kts 272°
2026-05-06 17:53 51.30640 -0.32655 2397 ft 157 kts 272°
2026-05-06 17:53 51.30621 -0.34395 2397 ft 157 kts 272°
2026-05-06 17:54 51.30601 -0.36136 2392 ft 156 kts 272°
2026-05-06 17:54 51.30582 -0.37859 2396 ft 155 kts 272°
2026-05-06 17:54 51.30564 -0.39595 2398 ft 157 kts 272°
2026-05-06 17:54 51.30546 -0.41335 2399 ft 157 kts 273°
2026-05-06 17:55 51.30529 -0.43080 2403 ft 157 kts 273°
2026-05-06 17:55 51.30485 -0.44820 2411 ft 159 kts 263°
2026-05-06 17:55 51.29851 -0.46275 2407 ft 167 kts 215°
2026-05-06 17:55 51.28748 -0.46624 2408 ft 166 kts 170°
2026-05-06 17:56 51.27599 -0.46452 2409 ft 167 kts 182°
2026-05-06 17:56 51.26478 -0.46890 2411 ft 167 kts 203°
2026-05-06 17:56 51.25401 -0.47638 2412 ft 167 kts 205°
2026-05-06 17:56 51.24357 -0.48401 2414 ft 168 kts 206°
2026-05-06 17:57 51.23300 -0.49189 2411 ft 167 kts 206°
2026-05-06 17:57 51.22257 -0.49968 2410 ft 165 kts 206°
2026-05-06 17:57 51.21225 -0.50738 2414 ft 163 kts 206°
2026-05-06 17:57 51.20199 -0.51504 2414 ft 163 kts 206°
2026-05-06 17:58 51.19171 -0.52271 2415 ft 162 kts 206°
2026-05-06 17:58 51.18147 -0.53034 2415 ft 163 kts 206°
2026-05-06 17:58 51.17123 -0.53796 2413 ft 163 kts 206°
2026-05-06 17:58 51.16095 -0.54560 2415 ft 163 kts 206°
2026-05-06 17:59 51.15066 -0.55326 2417 ft 164 kts 206°
2026-05-06 17:59 51.14028 -0.56098 2417 ft 165 kts 206°
2026-05-06 17:59 51.12990 -0.56870 2418 ft 164 kts 206°
2026-05-06 17:59 51.11953 -0.57640 2417 ft 165 kts 206°
2026-05-06 18:00 51.10916 -0.58410 2416 ft 164 kts 206°
2026-05-06 18:00 51.09875 -0.59184 2413 ft 165 kts 206°
2026-05-06 18:00 51.08834 -0.59956 2413 ft 165 kts 206°
2026-05-06 18:00 51.07794 -0.60728 2413 ft 165 kts 206°
2026-05-06 18:01 51.06730 -0.61520 2413 ft 173 kts 206°
2026-05-06 18:01 51.05575 -0.62166 2406 ft 180 kts 184°
2026-05-06 18:01 51.04393 -0.61598 2407 ft 181 kts 141°
2026-05-06 18:01 51.03716 -0.59974 2403 ft 177 kts 107°
2026-05-06 18:02 51.03269 -0.58112 2265 ft 186 kts 107°
2026-05-06 18:02 51.02801 -0.56194 2103 ft 184 kts 108°
2026-05-06 18:02 51.02337 -0.54319 1946 ft 181 kts 108°
2026-05-06 18:02 51.01874 -0.52462 1792 ft 180 kts 109°
2026-05-06 18:03 51.01409 -0.50618 1634 ft 179 kts 109°
2026-05-06 18:03 51.00941 -0.48782 1479 ft 180 kts 109°
2026-05-06 18:03 51.00559 -0.46944 1399 ft 174 kts 92°
2026-05-06 18:03 51.00636 -0.45086 1391 ft 165 kts 81°
2026-05-06 18:04 51.00749 -0.43293 1397 ft 162 kts 81°
2026-05-06 18:04 51.00866 -0.41508 1394 ft 159 kts 81°
2026-05-06 18:04 51.00994 -0.39777 1391 ft 156 kts 77°
2026-05-06 18:04 51.01192 -0.38110 1394 ft 156 kts 75°
2026-05-06 18:05 51.01391 -0.36427 1409 ft 154 kts 76°
2026-05-06 18:05 51.01589 -0.34753 1413 ft 154 kts 76°
2026-05-06 18:05 51.01797 -0.33083 1410 ft 154 kts 75°
2026-05-06 18:05 51.01998 -0.31422 1410 ft 152 kts 75°
2026-05-06 18:06 51.02180 -0.29779 1416 ft 150 kts 76°
2026-05-06 18:06 51.02361 -0.28146 1414 ft 150 kts 76°
2026-05-06 18:06 51.02546 -0.26511 1412 ft 150 kts 76°
2026-05-06 18:06 51.02726 -0.24886 1415 ft 149 kts 76°
2026-05-06 18:07 51.02919 -0.23268 1411 ft 149 kts 76°
2026-05-06 18:07 51.03104 -0.21654 1421 ft 149 kts 75°
2026-05-06 18:07 51.03284 -0.20019 1415 ft 150 kts 76°
2026-05-06 18:07 51.03471 -0.18392 1415 ft 150 kts 76°
2026-05-06 18:08 51.03661 -0.16756 1421 ft 151 kts 76°
2026-05-06 18:08 51.04191 -0.15400 1415 ft 146 kts 32°
2026-05-06 18:08 51.05136 -0.15205 1411 ft 139 kts 343°
2026-05-06 18:08 51.05775 -0.16281 1413 ft 141 kts 291°
2026-05-06 18:09 51.05674 -0.17822 1418 ft 142 kts 256°
2026-05-06 18:09 51.05371 -0.19314 1416 ft 141 kts 256°
2026-05-06 18:09 51.05070 -0.20786 1414 ft 139 kts 256°
2026-05-06 18:09 51.04768 -0.22220 1417 ft 134 kts 256°
2026-05-06 18:10 51.04387 -0.23544 1410 ft 136 kts 228°
2026-05-06 18:10 51.03511 -0.23997 1407 ft 138 kts 169°
2026-05-06 18:10 51.02804 -0.23153 1412 ft 127 kts 109°
2026-05-06 18:10 51.02719 -0.21817 1417 ft 121 kts 85°
2026-05-06 18:11 51.02766 -0.20476 1418 ft 122 kts 76°
2026-05-06 18:11 51.02907 -0.19152 1418 ft 121 kts 76°
2026-05-06 18:11 51.03057 -0.17814 1420 ft 124 kts 75°
2026-05-06 18:11 51.03203 -0.16451 1423 ft 126 kts 76°
2026-05-06 18:12 51.03404 -0.15095 1421 ft 126 kts 58°
2026-05-06 18:12 51.04114 -0.14415 1406 ft 125 kts
2026-05-06 18:12 51.04946 -0.14727 1401 ft 126 kts 333°
2026-05-06 18:12 51.05695 -0.15428 1401 ft 124 kts 332°
2026-05-06 18:13 51.06447 -0.16116 1402 ft 124 kts 333°
2026-05-06 18:13 51.07196 -0.16779 1406 ft 123 kts 333°
2026-05-06 18:13 51.07942 -0.17454 1401 ft 124 kts 333°
2026-05-06 18:13 51.08721 -0.17972 1399 ft 120 kts 348°
2026-05-06 18:14 51.09534 -0.18309 1399 ft 121 kts 348°
2026-05-06 18:14 51.10354 -0.18655 1399 ft 123 kts 348°
2026-05-06 18:14 51.11183 -0.18991 1400 ft 122 kts 348°
2026-05-06 18:14 51.12007 -0.19310 1396 ft 121 kts 347°
2026-05-06 18:15 51.12829 -0.19628 1401 ft 122 kts 348°
2026-05-06 18:15 51.13582 -0.20159 1455 ft 124 kts 303°
2026-05-06 18:15 51.13199 -0.21339 1133 ft 158 kts 192°
2026-05-06 18:15 51.12318 -0.20679 1253 ft 136 kts 115°
2026-05-06 18:16 51.12359 -0.19325 1218 ft 125 kts 51°
2026-05-06 18:16 51.13009 -0.19231 1505 ft 106 kts 308°
2026-05-06 18:16 51.12907 -0.20586 1188 ft 140 kts 271°
2026-05-06 18:16 51.13189 -0.21941 1225 ft 131 kts 304°
2026-05-06 18:17 51.13650 -0.23193 1199 ft 129 kts 309°
2026-05-06 18:17 51.14356 -0.23896 1273 ft 117 kts 344°
2026-05-06 18:17 51.15182 -0.24136 1219 ft 118 kts
2026-05-06 18:17 51.15977 -0.24036 1202 ft 122 kts
2026-05-06 18:18 51.16846 -0.24059 1188 ft 122 kts 360°
2026-05-06 18:18 51.17690 -0.24040 1169 ft 123 kts
2026-05-06 18:18 51.18527 -0.24091 1218 ft 121 kts 355°
2026-05-06 18:18 51.19384 -0.24217 1247 ft 118 kts 359°
2026-05-06 18:19 51.20206 -0.24339 1231 ft 121 kts 354°
2026-05-06 18:19 51.21075 -0.24633 1001 ft 135 kts 350°
2026-05-06 18:19 51.21961 -0.24839 1026 ft 124 kts 355°
2026-05-06 18:19 51.22820 -0.24834 998 ft 123 kts 15°
2026-05-06 18:20 51.23473 -0.24059 1100 ft 116 kts 51°
2026-05-06 18:20 51.23861 -0.22924 1095 ft 120 kts 68°
2026-05-06 18:20 51.23891 -0.21544 1017 ft 130 kts 99°
2026-05-06 18:20 51.23613 -0.20212 1121 ft 120 kts 94°
2026-05-06 18:21 51.23901 -0.19108 1186 ft 110 kts 36°
2026-05-06 18:21 51.24649 -0.18794 1187 ft 112 kts 350°
2026-05-06 18:21 51.25047 -0.19697 1283 ft 118 kts 268°
2026-05-06 18:21 51.24482 -0.20698 1245 ft 134 kts 192°
2026-05-06 18:22 51.23734 -0.20134 1279 ft 123 kts 107°
2026-05-06 18:22 51.23889 -0.18922 1255 ft 118 kts 43°
2026-05-06 18:22 51.24637 -0.18546 1294 ft 115 kts 347°
2026-05-06 18:22 51.25195 -0.19394 1315 ft 120 kts 291°
2026-05-06 18:23 51.25023 -0.20651 1233 ft 127 kts 232°
2026-05-06 18:23 51.24229 -0.21173 1188 ft 130 kts 172°
2026-05-06 18:23 51.23577 -0.20319 1073 ft 125 kts 102°
2026-05-06 18:23 51.23671 -0.19036 1044 ft 119 kts 82°
2026-05-06 18:24 51.23242 -0.17879 889 ft 124 kts 147°
2026-05-06 18:24 51.22483 -0.17384 636 ft 114 kts 161°
2026-05-06 18:24 51.21777 -0.17167 542 ft 98 kts 161°
2026-05-06 18:24 51.21231 -0.16763 422 ft 79 kts 109°
2026-05-06 18:25 51.21093 -0.15966 345 ft 73 kts 82°
2026-05-06 18:25 51.21144 -0.15173 276 ft 73 kts 77°
2026-05-06 18:25 51.21266 -0.14422 212 ft 66 kts 72°
2026-05-06 18:25 51.21353 -0.13954 210 ft 8 kts 72°
2026-05-06 18:26 51.21354 -0.13951 209 ft 0 kts 71°
2026-05-06 18:26 51.21364 -0.13942 207 ft 6 kts
2026-05-06 18:26 51.21450 -0.13920 208 ft 16 kts 33°
2026-05-06 18:26 51.21533 -0.13828 212 ft 0 kts 344°